Regional Weather Roundup
Issued by NWS

Home | Current Version | Previous Version | Graphics & Text | Print | Product List | Glossary On
Versions: 1 2 3 4 5 6 7 8 9 10 11 12 13 14 15 16 17 18 19 20 21 22 23 24 25 26 27 28 29 30 31 32 33 34 35 36 37 38 39 40 41 42 43 44 45 46 47 48 49 50
000
ASUS44 KMEG 022310
RWRTN
TENNESSEE HOURLY STATE WEATHER ROUNDUP
NATIONAL WEATHER SERVICE MEMPHIS TN
500 PM CST MON MAR 02 2015

TNZ002-004-019-021-049-052-054-088>092-030000-
WEST TENNESSEE

CITY           SKY/WX    TMP DP  RH WIND       PRES   REMARKS
MEMPHIS INTL   CLOUDY    41  35  79 N7        30.33F
NWS MEMPHIS      N/A     41 N/A N/A MISG        N/A
JACKSON        CLOUDY    47  29  49 CALM      30.32S
DYERSBURG      CLOUDY    39  19  45 N8        30.36S WCI  34
UNION CITY     CLOUDY    37  25  60 NE9       30.33F WCI  31
PARIS          CLOUDY    39  25  56 NE9       30.33F WCI  33
LEXINGTON      CLOUDY    48  27  43 NE3       30.30S
SAVANNAH       CLOUDY    46  39  76 CALM      30.30F
$$

TNZ008-025-027-028-033-062-065-066-030000-
NORTH MIDDLE TENNESSEE

CITY           SKY/WX    TMP DP  RH WIND       PRES   REMARKS
NASHVILLE      MOCLDY    47  29  49 E5        30.34S
CLARKSVILLE    PTCLDY    43  26  51 NE7       30.35F
SMYRNA         PTCLDY    48  31  52 E6        30.35R
COOKEVILLE       N/A     46  34  61 NE5       30.31R
CROSSVILLE     CLEAR     43  28  55 E7        30.30S
$$

TNZ061-075-076-078-094-096-097-030000-
SOUTH MIDDLE TENNESSEE

CITY           SKY/WX    TMP DP  RH WIND       PRES   REMARKS
FAYETTEVILLE   CLOUDY    45  36  70 NE6         N/A
TULLAHOMA      CLOUDY    43  34  70 N6        30.31S
WINCHESTER     CLOUDY    45  37  76 N5        30.30F
MCMINNVILLE    PTCLDY    45  36  70 N6        30.32R
COLUMBIA         N/A     46  36  66 NE7       30.30F
SHELBYVILLE    CLOUDY    45  37  76 NE3       30.34R
$$

TNZ017-018-042-046-047-030000-
NORTHEAST TENNESSEE

CITY           SKY/WX    TMP DP  RH WIND       PRES   REMARKS
TRI CITIES     MOCLDY    44  27  51 CALM      30.32S
ELIZABETHTON   CLEAR     43  32  65 W3        30.32R
$$

TNZ012-013-036-069-073-074-030000-
CENTRAL EAST TENNESSEE

CITY           SKY/WX    TMP DP  RH WIND       PRES   REMARKS
KNOXVILLE      MOCLDY    44  37  76 E9        30.32F
OAK RIDGE      CLEAR     47  30  51 VRB5      30.33F
GATLINBURG     CLOUDY    43  37  81 VRB3      30.33S
MORRISTOWN     CLEAR     45  34  65 E3        30.33S
$$

TNZ083-085-099-030000-
SOUTHEAST TENNESSEE

CITY           SKY/WX    TMP DP  RH WIND       PRES   REMARKS
CHATTANOOGA    PTCLDY    52  38  58 NE9       30.29F
$$

SKY/WX REPORTED AS FAIR MEANS FEW OR NO CLOUDS BELOW
12 THOUSAND FEET.



USA.gov is the U.S. government's official web portal to all federal, state and local government web resources and services.